Harvey, ND

3:41 PM CST on November 18, 2017 (GMT -0600)
Harvey

Weather History for K5H4 - January, 2013

Change the Weather History Date:

Saturday, January 19, 2013

  Actual Average (KRUG) Record (KRUG)
Temperature  
Mean Temperature 14 °F -  
Max Temperature 35 °F 17 °F 41 °F (1986)
Min Temperature -7 °F -3 °F -36 °F (1985)
Degree Days  
Heating Degree Days 51    
Moisture  
Dew Point 5 °F    
Average Humidity 78    
Maximum Humidity 93    
Minimum Humidity 66    
Precipitation  
Precipitation 0.01 in - - ()
Sea Level Pressure  
Sea Level Pressure 30.05 in    
Wind  
Wind Speed 19 mph (NW)    
Max Wind Speed 43 mph    
Max Gust Speed 48 mph    
Visibility 9 miles    
Events Snow    
Averages and records for this station are not official NWS values.
T = Trace of Precipitation, MM = Missing Value Source: NWS Daily Summary

Daily Weather History Graph

Daily Weather History Graph

Search for Another Location

Airport or City:

Trip Planner

Search our weather history database for the weather conditions in past years. The results will help you decide how hot, cold, wet, or windy it might be!

Date:

Astronomy

Jan. 19, 2013 Rise Set
Actual Time 8:20 AM CST 5:21 PM CST
Civil Twilight 7:46 AM CST 5:55 PM CST
Nautical Twilight 7:08 AM CST 6:33 PM CST
Astronomical Twilight 6:31 AM CST 7:10 PM CST
Moon 11:53 AM CST (1/19) 1:50 AM CST (1/19)
Length of Visible Light 10h 09m
Length of Day
9h 00m
First Quarter, 57% of the Moon is Illuminated
Jan 19
First Quarter
Jan 26
Full
Feb 3
Last Quarter
Feb 10
New
Feb 17
First Quarter

Hourly Weather History & Observations

Time (CST) Temp. Windchill Dew Point Humidity Pressure Visibility Wind Dir Wind Speed Gust Speed Precip Events Conditions
12:15 AM 32.0 °F 22.5 °F 28.4 °F 87% 29.64 in 10.0 mi WSW 12.7 mph - N/A   Clear
12:35 AM 32.0 °F 21.2 °F 28.4 °F 87% 29.65 in 10.0 mi West 16.1 mph - N/A   Clear
12:55 AM 32.0 °F 23.0 °F 28.4 °F 87% 29.65 in 10.0 mi West 11.5 mph - N/A   Scattered Clouds
1:15 AM 32.0 °F 23.6 °F 28.4 °F 87% 29.66 in 10.0 mi West 10.4 mph - N/A   Mostly Cloudy
1:35 AM 32.0 °F 22.1 °F 28.4 °F 87% 29.66 in 10.0 mi West 13.8 mph - N/A   Partly Cloudy
1:55 AM 33.8 °F 25.3 °F 28.4 °F 81% 29.66 in 10.0 mi West 11.5 mph - N/A   Partly Cloudy
2:15 AM 33.8 °F 23.5 °F 28.4 °F 81% 29.66 in 10.0 mi West 16.1 mph 20.7 mph N/A   Partly Cloudy
2:35 AM 35.6 °F 25.9 °F 28.4 °F 75% 29.68 in 10.0 mi West 16.1 mph 21.9 mph N/A   Scattered Clouds
2:55 AM 35.6 °F 25.5 °F 28.4 °F 75% 29.69 in 10.0 mi West 17.3 mph 26.5 mph N/A   Scattered Clouds
3:15 AM 35.6 °F 24.8 °F 28.4 °F 75% 29.70 in 10.0 mi WNW 19.6 mph 24.2 mph N/A   Scattered Clouds
3:35 AM 33.8 °F 23.9 °F 28.4 °F 81% 29.70 in 10.0 mi WNW 15.0 mph 21.9 mph N/A   Scattered Clouds
3:55 AM 33.8 °F 22.8 °F 30.2 °F 87% 29.71 in 10.0 mi WNW 18.4 mph 24.2 mph N/A   Scattered Clouds
4:15 AM 33.8 °F 22.2 °F 30.2 °F 87% 29.71 in 10.0 mi WNW 20.7 mph 26.5 mph N/A   Partly Cloudy
4:35 AM 33.8 °F 22.8 °F 30.2 °F 87% 29.70 in 10.0 mi WNW 18.4 mph - N/A   Partly Cloudy
4:55 AM 33.8 °F 22.2 °F 32.0 °F 93% 29.71 in 10.0 mi WNW 20.7 mph 29.9 mph N/A   Partly Cloudy
5:15 AM 33.8 °F 21.6 °F 32.0 °F 93% 29.72 in 10.0 mi WNW 23.0 mph 29.9 mph N/A   Clear
5:35 AM 33.8 °F 21.0 °F 32.0 °F 93% 29.73 in 10.0 mi NW 25.3 mph 32.2 mph N/A   Scattered Clouds
5:55 AM 33.8 °F 22.5 °F 32.0 °F 93% 29.74 in 10.0 mi WNW 19.6 mph 29.9 mph N/A   Mostly Cloudy
7:15 AM 24.8 °F 8.1 °F 23.0 °F 93% 29.81 in 5.0 mi NW 28.8 mph 36.8 mph N/A   Overcast
7:55 AM 17.6 °F -1.6 °F 14.0 °F 86% 29.86 in 3.0 mi NNW 28.8 mph 38.0 mph N/A   Overcast
8:15 AM 14.0 °F -7.1 °F 10.4 °F 86% 29.88 in 2.0 mi NNW 31.1 mph 40.3 mph N/A Snow Light Snow
8:35 AM 10.4 °F -11.7 °F 8.6 °F 92% 29.90 in 2.5 mi NNW 29.9 mph 38.0 mph N/A   Overcast
9:55 AM 8.6 °F -15.1 °F 6.8 °F 92% 29.98 in 0.8 mi NNW 33.4 mph 44.9 mph 0.01 in Snow Light Snow
10:15 AM 8.6 °F -15.7 °F 5.0 °F 85% 29.99 in 0.8 mi NNW 35.7 mph 46.0 mph N/A Snow Light Snow
10:35 AM 8.6 °F -15.1 °F 5.0 °F 85% 30.03 in 1.0 mi NNW 33.4 mph 43.7 mph N/A Snow Light Snow
10:55 AM 6.8 °F -17.9 °F 1.4 °F 79% 30.05 in 0.8 mi NNW 34.5 mph 48.3 mph N/A Snow Light Snow
11:15 AM 5.0 °F -20.4 °F -0.4 °F 78% 30.07 in 3.0 mi NW 34.5 mph 48.3 mph N/A   Haze
11:35 AM 5.0 °F -20.1 °F -0.4 °F 78% 30.09 in 7.0 mi NNW 33.4 mph 40.3 mph N/A   Mostly Cloudy
11:55 AM 5.0 °F -20.7 °F -2.2 °F 72% 30.09 in 5.0 mi NNW 35.7 mph 47.2 mph N/A   Haze
12:15 PM 5.0 °F -22.4 °F -2.2 °F 72% 30.09 in 4.0 mi NNW 42.6 mph 48.3 mph N/A   Haze
12:35 PM 3.2 °F -22.9 °F -4.0 °F 72% 30.12 in 9.0 mi NW 34.5 mph 43.7 mph N/A   Partly Cloudy
12:55 PM 1.4 °F -25.3 °F -4.0 °F 78% 30.13 in 9.0 mi NW 34.5 mph 42.6 mph N/A   Partly Cloudy
1:15 PM 1.4 °F -24.3 °F -4.0 °F 78% 30.15 in 8.0 mi NNW 31.1 mph 40.3 mph N/A   Partly Cloudy
1:35 PM 1.4 °F -22.7 °F -5.8 °F 72% 30.18 in 7.0 mi NNW 26.5 mph 39.1 mph N/A   Partly Cloudy
1:55 PM -0.4 °F -26.4 °F -5.8 °F 78% 30.19 in 10.0 mi NNW 29.9 mph 38.0 mph N/A   Scattered Clouds
2:15 PM -0.4 °F -25.2 °F -7.6 °F 72% 30.21 in 10.0 mi NNW 26.5 mph 38.0 mph N/A   Partly Cloudy
2:35 PM -0.4 °F -24.7 °F -7.6 °F 72% 30.22 in 10.0 mi NW 25.3 mph 40.3 mph N/A   Clear
2:55 PM -0.4 °F -24.7 °F -7.6 °F 72% 30.24 in 10.0 mi NW 25.3 mph 29.9 mph N/A   Clear
3:15 PM -0.4 °F -24.3 °F -7.6 °F 72% 30.25 in 10.0 mi NW 24.2 mph 31.1 mph N/A   Clear
3:35 PM -0.4 °F -25.2 °F -7.6 °F 72% 30.26 in 10.0 mi NW 26.5 mph 32.2 mph N/A   Clear
3:55 PM -0.4 °F -23.8 °F -7.6 °F 72% 30.26 in 10.0 mi NW 23.0 mph 29.9 mph N/A   Clear
4:15 PM -0.4 °F -23.3 °F -7.6 °F 72% 30.27 in 10.0 mi NW 21.9 mph - N/A   Clear
4:35 PM -0.4 °F -22.8 °F -9.4 °F 66% 30.28 in 10.0 mi NW 20.7 mph 25.3 mph N/A   Clear
4:55 PM -2.2 °F -23.5 °F -9.4 °F 71% 30.29 in 10.0 mi NW 17.3 mph 23.0 mph N/A   Clear
5:15 PM -2.2 °F -22.2 °F -9.4 °F 71% 30.30 in 10.0 mi NW 15.0 mph - N/A   Clear
5:35 PM -2.2 °F -23.5 °F -9.4 °F 71% 30.30 in 10.0 mi NW 17.3 mph - N/A   Clear
5:55 PM -4.0 °F -23.7 °F -11.2 °F 71% 30.31 in 10.0 mi NW 13.8 mph - N/A   Clear
6:15 PM -4.0 °F -21.2 °F -11.2 °F 71% 30.32 in 10.0 mi NW 10.4 mph - N/A   Clear
6:35 PM -4.0 °F -23.0 °F -11.2 °F 71% 30.31 in 10.0 mi NW 12.7 mph - N/A   Clear
6:55 PM -4.0 °F -22.1 °F -11.2 °F 71% 30.31 in 10.0 mi NW 11.5 mph - N/A   Clear
7:15 PM -5.8 °F -22.4 °F -13.0 °F 71% 30.31 in 10.0 mi WNW 9.2 mph - N/A   Clear
7:35 PM -5.8 °F -19.9 °F -11.2 °F 77% 30.32 in 10.0 mi WNW 6.9 mph - N/A   Clear
7:55 PM -7.6 °F -22.1 °F -13.0 °F 77% 30.32 in 10.0 mi WNW 6.9 mph - N/A   Clear
8:15 PM -5.8 °F -24.4 °F - N/A% 30.33 in 10.0 mi WNW 11.5 mph - N/A   Clear
8:35 PM -5.8 °F -26.0 °F - N/A% 30.32 in 10.0 mi WNW 13.8 mph - N/A   Clear
8:55 PM -5.8 °F -25.2 °F -11.2 °F 77% 30.33 in 10.0 mi West 12.7 mph - N/A   Clear
9:15 PM -5.8 °F -24.4 °F -11.2 °F 77% 30.32 in 10.0 mi WNW 11.5 mph - N/A   Clear
9:35 PM -5.8 °F -25.2 °F -11.2 °F 77% 30.31 in 10.0 mi NW 12.7 mph - N/A   Clear
9:55 PM -4.0 °F -23.7 °F -11.2 °F 71% 30.31 in 10.0 mi NW 13.8 mph - N/A   Clear
10:15 PM -4.0 °F -22.1 °F -11.2 °F 71% 30.31 in 10.0 mi NW 11.5 mph - N/A   Clear
10:35 PM -4.0 °F -23.0 °F -11.2 °F 71% 30.31 in 10.0 mi WNW 12.7 mph - N/A   Clear
10:55 PM -4.0 °F -19.0 °F -11.2 °F 71% 30.31 in 10.0 mi NW 8.1 mph - N/A   Clear
11:15 PM -4.0 °F -20.2 °F -11.2 °F 71% 30.30 in 10.0 mi NW 9.2 mph - N/A   Clear
11:35 PM -4.0 °F -17.8 °F -11.2 °F 71% 30.30 in 10.0 mi WNW 6.9 mph - N/A   Clear